[[{"header":{"parameterUnit":"m.s-1","parameterCategory":1,"la1":30.2991,"la2":30.254,"lo1":-89.0895,"lo2":-89.0444,"dy":0.0017,"dx":0.0017,"nx":28,"ny":28,"refTime":"2024-04-16T09:00:00:Z","depth":0,"parameterNumber":2,"parameterNumberName":"U-component_of_WINDS"},"data":[0,0,0,0,0,0,0,0,0,0,0,0,0,0,0,0,0,0,0,0,0,0,0,0,0,0,0,0,0,0,0,0,0,0,0,0,0,0,0,0,0,0,0,0,0,0,0,0,0,0,0,0,0,0,0,0,0,0,-2.1449,-2.145,0,-2.1474,-2.1475,-2.1475,-2.1441,-2.144,-2.1438,-2.1437,-2.1465,-2.1466,-2.1468,0,0,0,0,0,0,0,0,0,0,0,0,0,-2.1375,-2.1377,-2.1449,-2.145,-2.145,-2.1474,-2.1475,-2.1475,-2.1441,-2.144,-2.1438,-2.1437,-2.1464,-2.1466,-2.1468,0,0,0,0,0,0,0,0,0,0,0,0,0,-2.1405,-2.1377,-2.1449,-2.1436,-2.1435,-2.1474,-2.1475,-2.1475,-2.1441,-2.1439,-2.1438,-2.1436,-2.1463,-2.1466,-2.1469,-2.1523,0,0,-2.1477,-2.1478,0,0,0,0,0,0,0,0,-2.1403,-2.1408,-2.1438,-2.1437,-2.1436,-2.1452,-2.1459,-2.1491,-2.1442,-2.1439,-2.1437,-2.1435,-2.1462,-2.1465,-2.1474,-2.1524,-2.1525,-2.1477,-2.1479,-2.148,-2.1481,0,0,0,0,0,0,0,-2.1401,-2.1406,-2.1459,-2.1438,-2.1437,-2.143,-2.1432,-2.1465,-2.1461,-2.1439,-2.1437,-2.144,-2.1461,-2.1471,-2.1474,-2.1526,-2.1477,-2.148,-2.1482,-2.1483,-2.1624,-2.1626,0,0,0,0,0,0,-2.14,-2.1405,-2.1458,-2.146,-2.1415,-2.1433,-2.1435,-2.1449,-2.146,-2.146,-2.1442,-2.1438,-2.1467,-2.1471,-2.1475,-2.154,-2.148,-2.1483,-2.1485,-2.1622,-2.1624,-2.1626,0,0,0,0,0,0,-2.1399,-2.1405,-2.1457,-2.1432,-2.1438,-2.1436,-2.1452,-2.1451,-2.146,-2.1462,-2.1461,-2.1452,-2.1466,-2.1471,-2.1511,-2.154,-2.1484,-2.1487,-2.1619,-2.1622,-2.1625,-2.167,0,0,0,0,0,0,-2.1397,-2.1405,-2.1425,-2.1432,-2.1439,-2.1493,-2.1454,-2.1452,-2.1465,-2.1461,-2.1472,-2.1472,-2.1465,-2.1507,-2.1514,-2.1543,-2.1489,-2.1616,-2.162,-2.1624,-2.1666,-2.1674,-2.1682,0,0,0,0,0,-2.1394,-2.1436,-2.1426,-2.1433,-2.1464,-2.1494,-2.1498,-2.1489,-2.1467,-2.1488,-2.1489,-2.1471,-2.1536,-2.1512,-2.1519,-2.155,-2.1615,-2.1619,-2.1624,-2.1663,-2.1673,-2.1681,0,0,0,0,0,0,-2.1433,-2.1437,-2.1425,-2.1471,-2.1483,-2.1489,-2.1514,-2.15,-2.1518,-2.1514,-2.1502,-2.1505,-2.1549,-2.1553,-2.1526,-2.1604,-2.1572,-2.1578,-2.1599,-2.1609,-2.1616,-2.1614,-2.1491,0,0,0,0,0,-2.1446,-2.147,-2.1473,-2.1513,-2.1519,-2.1516,-2.1529,-2.1521,-2.1533,-2.1537,-2.1542,-2.1554,-2.1578,-2.1593,-2.1615,-2.1667,-2.1669,-2.1691,-2.1699,-2.1705,-2.1711,-2.174,-2.1751,-2.1641,-2.1641,-2.1641,0,0,-2.1475,-2.148,-2.1496,-2.1521,-2.1529,-2.1555,-2.152,-2.1549,-2.1568,-2.1542,-2.158,-2.1584,-2.1598,-2.1645,-2.1665,-2.165,-2.1742,-2.1711,-2.1716,-2.1719,-2.1746,-2.1757,-2.1766,-2.1645,-2.1644,-2.1644,0,0,-2.154,-2.1546,-2.1581,-2.159,-2.1602,-2.16,-2.1608,-2.1617,-2.1618,-2.1657,-2.1638,-2.1662,-2.1702,-2.1713,-2.1723,-2.1795,-2.178,-2.1803,-2.1843,-2.1872,-2.188,-2.1888,-2.1915,-2.1924,-2.1808,-2.1808,-2.1808,0,-2.1574,-2.1612,-2.1601,-2.1631,-2.1643,-2.1621,-2.1657,-2.1666,-2.1685,-2.1695,-2.1677,-2.1728,-2.1735,-2.1785,-2.1802,-2.1812,-2.1822,-2.1801,-2.188,-2.1887,-2.1894,-2.192,-2.193,-2.1811,-2.1811,-2.181,-2.181,0,-2.1654,-2.168,-2.1707,-2.1726,-2.1741,-2.1774,-2.1769,-2.1786,-2.1778,-2.1778,-2.1818,-2.1827,-2.185,-2.1861,-2.1853,-2.191,-2.19,-2.1881,-2.185,-2.1908,-2.1931,-2.1941,-2.1815,-2.1814,-2.1813,-2.1812,0,0,-2.1743,-2.1757,-2.1767,-2.1776,-2.1789,-2.1809,-2.1842,-2.1865,-2.188,-2.1895,-2.1923,-2.1958,-2.1941,-2.1953,-2.1946,-2.1972,-2.2029,-2.195,-2.195,-2.1965,-2.2095,-2.211,-2.2121,-2.2019,-2.2021,-2.2023,-2.2094,0,-2.181,-2.1865,-2.1857,-2.1911,-2.1936,-2.1916,-2.1945,-2.1957,-2.1958,-2.1981,-2.1982,-2.2008,-2.1983,-2.199,-2.2014,-2.2017,-2.2055,-2.2012,-2.2046,-2.2048,-2.2044,-2.2133,-2.2148,-2.2215,-2.2103,-2.2105,-2.2106,0,-2.1894,-2.1911,-2.1968,-2.1978,-2.1989,-2.2015,-2.2036,-2.2057,-2.2071,-2.207,-2.2085,-2.2073,-2.2108,-2.2075,-2.2123,-2.2094,-2.2107,-2.2111,-2.2114,-2.2117,-2.208,-2.2139,-2.2236,-2.2247,-2.212,-2.2119,-2.2118,0,-2.1955,-2.1993,-2.2032,-2.204,-2.2053,-2.2072,-2.2078,-2.209,-2.2105,-2.2123,-2.2133,-2.2156,-2.2168,-2.2187,-2.2183,-2.2159,-2.2232,-2.2199,-2.2233,-2.2234,-2.225,-2.2249,-2.2351,-2.2258,-2.2258,-2.2257,-2.2257,0,-2.203,-2.2066,-2.2059,-2.2084,-2.2124,-2.2115,-2.2155,-2.2159,-2.217,-2.2196,-2.2179,-2.2204,-2.2197,-2.2221,-2.2218,-2.2259,-2.2265,-2.2266,-2.2265,-2.2268,-2.2268,-2.2277,-2.2272,-2.226,-2.2259,-2.2259,-2.2258,0,-2.2105,-2.2102,-2.2143,-2.2152,-2.2155,-2.2185,-2.2193,-2.2216,-2.2217,-2.2249,-2.2257,-2.2258,-2.2286,-2.2284,-2.2315,-2.2314,-2.2364,-2.2357,-2.236,-2.2358,-2.2393,-2.2391,-2.2505,-2.2521,-2.2417,-2.2418,-2.2419,0,-2.2153,-2.218,-2.2192,-2.2208,-2.2215,-2.2241,-2.2256,-2.2249,-2.2265,-2.2284,-2.2305,-2.2332,-2.2353,-2.24,-2.2404,-2.2429,-2.2423,-2.2461,-2.2426,-2.2429,-2.2424,-2.2423,-2.2426,-2.2468,-2.2469,-2.247,-2.2471,0,-2.224,-2.2237,-2.2259,-2.2281,-2.2299,-2.2316,-2.2332,-2.2346,-2.234,-2.236,-2.2389,-2.2405,-2.2438,-2.2465,-2.2489,-2.2497,-2.2484,-2.2482,-2.2492,-2.2495,-2.2496,-2.2497,-2.2379,-2.248,-2.2479,-2.2478,-2.2478,-2.2477,-2.2303,-2.2327,-2.2339,-2.2365,-2.2376,-2.2391,-2.2414,-2.2417,-2.2441,-2.2467,-2.2461,-2.2494,-2.2508,-2.2539,-2.2549,-2.2575,-2.2561,-2.2575,-2.2578,-2.2582,-2.2587,-2.2491,-2.2579,-2.2579,-2.2579,-2.2579,-2.2579,0,-2.239,-2.2397,-2.2421,-2.2443,-2.2463,-2.2449,-2.2465,-2.2484,-2.2513,-2.2527,-2.2548,-2.2582,-2.2609,-2.2615,-2.2641,-2.2661,-2.2656,-2.2669,-2.2667,-2.267,-2.2597,-2.2586,-2.2672,-2.2672,-2.2672,-2.2672,-2.2672,-2.2672,-2.2438,-2.2477,-2.2477,-2.2522,-2.2529,-2.2561,-2.2572,-2.2586,-2.2598,-2.2636,-2.2658,-2.2662,-2.2674,-2.2701,-2.2725,-2.2727,-2.2738,-2.2753,-2.2752,-2.2684,-2.2675,-2.2666,-2.2656,-2.2755,-2.2755,-2.2822,-2.2823,-2.2823]},{"header":{"parameterUnit":"m.s-1","parameterCategory":1,"la1":30.2991,"la2":30.254,"lo1":-89.0895,"lo2":-89.0444,"dy":0.0017,"dx":0.0017,"nx":28,"ny":28,"refTime":"2024-04-16T09:00:00:Z","depth":0,"parameterNumber":3,"parameterNumberName":"V-component_of_WINDS"},"data":[0,0,0,0,0,0,0,0,0,0,0,0,0,0,0,0,0,0,0,0,0,0,0,0,0,0,0,0,0,0,0,0,0,0,0,0,0,0,0,0,0,0,0,0,0,0,0,0,0,0,0,0,0,0,0,0,0,0,6.4524,6.4525,0,6.4576,6.4576,6.4577,6.453,6.4528,6.4526,6.4524,6.4573,6.4576,6.4579,0,0,0,0,0,0,0,0,0,0,0,0,0,6.4381,6.4384,6.4524,6.4525,6.4526,6.4576,6.4576,6.4577,6.453,6.4528,6.4526,6.4523,6.4572,6.4576,6.4579,0,0,0,0,0,0,0,0,0,0,0,0,0,6.4439,6.4385,6.4524,6.4508,6.4508,6.4575,6.4576,6.4577,6.4531,6.4528,6.4525,6.4522,6.4571,6.4575,6.458,6.4665,0,0,6.4594,6.4596,0,0,0,0,0,0,0,0,6.4435,6.4444,6.451,6.451,6.4509,6.4544,6.4543,6.4606,6.4531,6.4522,6.4524,6.4521,6.4565,6.457,6.4586,6.4667,6.4669,6.4594,6.4597,6.4599,6.46,0,0,0,0,0,0,0,6.4432,6.4442,6.4544,6.4511,6.451,6.4497,6.4502,6.4555,6.4559,6.4522,6.4519,6.4526,6.4564,6.4581,6.4587,6.467,6.4594,6.4598,6.4601,6.4603,6.4821,6.4824,0,0,0,0,0,0,6.443,6.4439,6.4543,6.4546,6.4465,6.4502,6.4508,6.4535,6.4558,6.4559,6.4528,6.4524,6.4575,6.4581,6.4588,6.4688,6.4599,6.4603,6.4606,6.4818,6.4821,6.4825,0,0,0,0,0,0,6.4427,6.444,6.4541,6.4491,6.4503,6.4508,6.4539,6.4538,6.4555,6.4563,6.4562,6.4546,6.4573,6.4582,6.4646,6.4689,6.4605,6.4609,6.4814,6.4819,6.4823,6.4889,0,0,0,0,0,0,6.4423,6.4439,6.4473,6.4493,6.4506,6.4599,6.4541,6.4541,6.4563,6.4558,6.4579,6.4579,6.4571,6.4639,6.465,6.4694,6.4613,6.481,6.4816,6.4822,6.4883,6.4895,6.4906,0,0,0,0,0,6.4418,6.4489,6.4475,6.4487,6.4549,6.4602,6.461,6.46,6.4567,6.46,6.4605,6.4579,6.4682,6.4646,6.4658,6.4704,6.4808,6.4815,6.4821,6.4878,6.4893,6.4905,0,0,0,0,0,0,6.4472,6.4491,6.4476,6.4555,6.4577,6.4594,6.4635,6.4616,6.4648,6.4641,6.4627,6.4632,6.4699,6.4708,6.4667,6.4786,6.4739,6.4749,6.4778,6.4793,6.4804,6.48,6.4617,0,0,0,0,0,6.4494,6.4537,6.455,6.4619,6.4631,6.4632,6.4654,6.4645,6.4667,6.4676,6.4685,6.4707,6.4744,6.4769,6.4803,6.4884,6.4887,6.4921,6.4932,6.4942,6.495,6.4992,6.5006,6.4847,6.4847,6.4847,0,0,6.4538,6.4553,6.4582,6.463,6.4647,6.469,6.464,6.4688,6.472,6.4683,6.4744,6.4752,6.4774,6.4847,6.4879,6.4856,6.4994,6.495,6.4958,6.4961,6.5,6.5015,6.5029,6.4852,6.4851,6.485,0,0,6.4641,6.4658,6.4716,6.4734,6.4759,6.4759,6.4773,6.4792,6.4796,6.4857,6.483,6.4867,6.4932,6.4948,6.4965,6.5073,6.505,6.5085,6.5144,6.5185,6.5198,6.5209,6.5246,6.526,6.5093,6.5093,6.5093,0,6.4692,6.4759,6.4748,6.4799,6.482,6.479,6.4847,6.4864,6.4899,6.4914,6.4888,6.4968,6.4981,6.5056,6.5082,6.5097,6.5112,6.5082,6.5197,6.5208,6.5218,6.5253,6.5268,6.5097,6.5097,6.5096,6.5096,0,6.482,6.4866,6.491,6.4946,6.4972,6.5026,6.5022,6.5049,6.5037,6.5039,6.5101,6.5115,6.5152,6.5169,6.5158,6.5242,6.5227,6.5199,6.5152,6.5237,6.527,6.5284,6.5103,6.5102,6.51,6.5099,0,0,6.4959,6.4988,6.5004,6.502,6.5045,6.508,6.5131,6.5168,6.5191,6.5216,6.5258,6.5313,6.5287,6.5306,6.5296,6.5332,6.5415,6.5299,6.5299,6.532,6.5508,6.5528,6.5544,6.54,6.5402,6.5404,6.5505,0,6.5063,6.5154,6.5146,6.5232,6.5273,6.5244,6.5288,6.5308,6.531,6.5344,6.5346,6.5385,6.5349,6.536,6.5394,6.5398,6.5452,6.539,6.5437,6.5439,6.5432,6.5562,6.5584,6.5679,6.5518,6.5521,6.5522,0,6.5196,6.5226,6.5317,6.5335,6.5352,6.5392,6.5424,6.5458,6.5478,6.5477,6.5499,6.5482,6.5532,6.5484,6.5551,6.5509,6.5528,6.5532,6.5535,6.5539,6.5486,6.5568,6.5709,6.5723,6.5543,6.5541,6.554,0,6.5288,6.5351,6.5413,6.5427,6.5449,6.5478,6.5489,6.5507,6.5529,6.5556,6.557,6.5603,6.5621,6.5645,6.5637,6.5603,6.5706,6.5658,6.5706,6.5706,6.5729,6.5727,6.5874,6.5741,6.5741,6.5741,6.5741,0,6.5404,6.546,6.5454,6.5493,6.5554,6.5542,6.5603,6.5609,6.5625,6.5663,6.5639,6.5674,6.5661,6.5695,6.5689,6.5745,6.5754,6.5753,6.5751,6.5755,6.5755,6.5767,6.576,6.5745,6.5744,6.5743,6.5742,0,6.5517,6.5516,6.5581,6.5597,6.5602,6.5647,6.5659,6.5694,6.5694,6.5742,6.5752,6.5752,6.5791,6.5785,6.5828,6.5824,6.5894,6.5884,6.5888,6.5885,6.5933,6.5929,6.6092,6.6112,6.5967,6.5969,6.597,0,6.5591,6.5634,6.5654,6.5678,6.5691,6.573,6.5752,6.5742,6.5766,6.5792,6.5823,6.586,6.5889,6.5952,6.5955,6.5987,6.5977,6.6032,6.5982,6.5984,6.5977,6.5974,6.5978,6.6042,6.6043,6.6045,6.6046,0,6.5723,6.572,6.5754,6.5788,6.5816,6.5841,6.5864,6.5885,6.5876,6.5904,6.5944,6.5966,6.601,6.6046,6.6076,6.6085,6.6064,6.6062,6.6074,6.6079,6.608,6.6079,6.5914,6.6058,6.6057,6.6056,6.6055,6.6055,6.5819,6.5855,6.5874,6.5913,6.5929,6.5951,6.5984,6.5989,6.6022,6.6058,6.6049,6.6093,6.6111,6.6149,6.6161,6.6195,6.6174,6.6193,6.6198,6.6202,6.6208,6.6075,6.62,6.62,6.6199,6.6199,6.6199,0,6.5948,6.596,6.5995,6.6028,6.6058,6.6036,6.606,6.6086,6.6126,6.6144,6.6173,6.6218,6.6253,6.6258,6.6291,6.6317,6.6308,6.6326,6.6323,6.6325,6.6224,6.621,6.6332,6.6332,6.6332,6.6332,6.6332,6.6332,6.602,6.6079,6.6078,6.6145,6.6155,6.6199,6.6215,6.6234,6.6248,6.63,6.6329,6.6333,6.6345,6.6378,6.6409,6.6409,6.6422,6.6444,6.644,6.6346,6.6333,6.632,6.6306,6.6447,6.6447,6.6538,6.6539,6.654]}]]